FENGYUN 1C DEB *, 47025

Orbit data source: Space-Track

FENGYUN 1C DEB *, 47025 is space debris in SSO originally from a launch on Mon, 10 May 1999 UTC launched from the Taiyaun Space Center, China (TSC). Fengyun 1C debris stems from the Chinese weather satellite Fengyun-1C, which was intentionally destroyed by a Chinese anti-satellite missile in 2007. This event dramatically increased the amount of space debris, with thousands of trackable fragments posing hazards to satellites and human spaceflight. The Fengyun 1C debris cloud has become a focal point in discussions about space sustainability and the need for international regulations to prevent the creation of new debris.

Loading next visibility...
Identifier
47025, 1999-025FBB
Orbit
SSO
Country
Flag of CNCN / PRC
Related business
Manufacturer
Unknown
Mission
Spacecraft
Bus & Motor
Unknown
Mass
Unknown
Launch date (UTC)
1999-05-10 (27 years ago)
Launch vehicle
Unknown
Launch site
Taiyaun Space Center, China (TSC)
Object type
Payload
Rocket body
Debris
Shape & HBR
Unknown shape, 0.1 m
Radar Cross Section
Small (<0.1 m²)

Expand to show TLE details & history
Last TLE update: 6 days ago

TLE from 6 days ago
0 FENGYUN 1C DEB *
1 47025U 99025FBB 26248.59705454  .00002764  00000-0  72760-3 0  9998
2 47025  99.0209 118.2760 0036451 283.6122 105.9809 14.49567584666044
Epoch: 2026-09-05T14:19Z
TLE epoch observation values (Epoch: 2026-09-05T14:19:45.512Z)
Latitude
29.63702°
Longitude
-86.52227°
Altitude
737.991 km
Speed
7.485 km/s
True Right ascension
07h 32m 29s
True Declination
29° 29' 20"
Sunlit
Object was in daylight at epoch
Visualization orbit readout
Latitude
Unknown
Longitude
Unknown
Altitude
Unknown
Speed
Unknown
Apparent Right ascension
Unknown
Apparent Declination
Unknown
Sunlit
N/A
Visualization observer readout
Local Sidereal Time
23:47:14
Azimuth
Unknown
Elevation
Unknown
Doppler factor
Unknown
Orbital elements
Apogee altitude
750.084 km
Perigee altitude
698.307 km
Semi-major axis
7,102.333 km
Eccentricity
0.00365
Inclination
99.0209°
RAAN
118.276°
Arg. of periapsis
283.6122°
True anomaly
106.38195°
Mean anomaly
105.9809°
Eccentric anomaly
106.18148°
Mean motion
3.62612 °/min
Orbital period
99.28 mins
BSTAR
0.0007276
Loading maneuver chart data...
Computing Atmospheric mass density...

Documentation

Showing up to 5 results
|